Belmar-Farmingdale, NJ

10:49 AM EDT on July 21, 2017 (GMT -0400)
Allaire

Weather History for KBLM - March, 2012

Change the Weather History Date:

Tuesday, March 27, 2012

  Actual Average Record
Temperature  
Mean Temperature 40 °F -  
Max Temperature 51 °F 51 °F 82 °F (1998)
Min Temperature 28 °F 36 °F 21 °F (2001)
Degree Days  
Heating Degree Days 26    
Moisture  
Dew Point 3 °F    
Average Humidity 24    
Maximum Humidity 34    
Minimum Humidity 14    
Precipitation  
Precipitation 0.00 in - - ()
Sea Level Pressure  
Sea Level Pressure 30.21 in    
Wind  
Wind Speed 14 mph (NW)    
Max Wind Speed 22 mph    
Max Gust Speed 30 mph    
Visibility 10 miles    
Events      
Averages and records for this station are not official NWS values.
T = Trace of Precipitation, MM = Missing Value Source: NWS Daily Summary

Daily Weather History Graph

Daily Weather History Graph

Search for Another Location

Airport or City:

Trip Planner

Search our weather history database for the weather conditions in past years. The results will help you decide how hot, cold, wet, or windy it might be!

Date:

Astronomy

Mar. 27, 2012 Rise Set
Actual Time 6:47 AM EDT 7:16 PM EDT
Civil Twilight 6:20 AM EDT 7:43 PM EDT
Nautical Twilight 5:48 AM EDT 8:15 PM EDT
Astronomical Twilight 5:15 AM EDT 8:48 PM EDT
Moon 9:16 AM EDT (3/27) No Moon Set
Length of Visible Light 13h 23m
Length of Day
12h 28m
Waxing Crescent, 22% of the Moon is Illuminated
Mar 27
Waxing Crescent
Mar 30
First Quarter
Apr 6
Full
Apr 13
Last Quarter
Apr 21
New

Hourly Weather History & Observations

Time (EDT) Temp. Windchill Dew Point Humidity Pressure Visibility Wind Dir Wind Speed Gust Speed Precip Events Conditions
12:15 AM 35.6 °F 25.5 °F 6.8 °F 30% 30.12 in 10.0 mi NW 17.3 mph 23.0 mph N/A   Clear
12:35 AM 33.8 °F 25.3 °F 5.0 °F 30% 30.14 in 10.0 mi NW 11.5 mph 20.7 mph N/A   Clear
12:55 AM 33.8 °F 23.9 °F 5.0 °F 30% 30.14 in 10.0 mi NW 15.0 mph - N/A   Clear
1:15 AM 33.8 °F 24.3 °F 3.2 °F 28% 30.14 in 10.0 mi NNW 13.8 mph - N/A   Clear
1:35 AM 33.8 °F 23.5 °F 3.2 °F 28% 30.14 in 10.0 mi NW 16.1 mph 21.9 mph N/A   Clear
1:55 AM 33.8 °F 25.8 °F 3.2 °F 28% 30.14 in 10.0 mi NW 10.4 mph - N/A   Clear
2:15 AM 33.8 °F 25.3 °F 3.2 °F 28% 30.15 in 10.0 mi NW 11.5 mph - N/A   Clear
2:35 AM 32.0 °F 24.2 °F 5.0 °F 32% 30.15 in 10.0 mi NW 9.2 mph - N/A   Clear
2:55 AM 32.0 °F 23.0 °F 5.0 °F 32% 30.15 in 10.0 mi NW 11.5 mph 18.4 mph N/A   Clear
3:15 AM 32.0 °F 23.0 °F 3.2 °F 30% 30.16 in 10.0 mi NW 11.5 mph - N/A   Clear
3:35 AM 32.0 °F 24.2 °F 5.0 °F 32% 30.16 in 10.0 mi NW 9.2 mph - N/A   Clear
3:55 AM 32.0 °F 22.1 °F 3.2 °F 30% 30.16 in 10.0 mi NW 13.8 mph - N/A   Clear
4:15 AM 30.2 °F 22.6 °F 3.2 °F 32% 30.17 in 10.0 mi WNW 8.1 mph - N/A   Clear
4:35 AM 30.2 °F 24.3 °F 3.2 °F 32% 30.17 in 10.0 mi NW 5.8 mph - N/A   Clear
4:55 AM 30.2 °F 24.3 °F 3.2 °F 32% 30.17 in 10.0 mi WNW 5.8 mph - N/A   Clear
5:15 AM 30.2 °F 22.6 °F 3.2 °F 32% 30.18 in 10.0 mi WNW 8.1 mph - N/A   Clear
5:35 AM 30.2 °F 21.9 °F 3.2 °F 32% 30.19 in 10.0 mi NW 9.2 mph - N/A   Clear
5:55 AM 30.2 °F 19.3 °F 3.2 °F 32% 30.20 in 10.0 mi NW 15.0 mph 23.0 mph N/A   Clear
6:15 AM 30.2 °F 24.3 °F 1.4 °F 29% 30.20 in 10.0 mi NW 5.8 mph - N/A   Clear
6:35 AM 28.4 °F 19.1 °F 3.2 °F 34% 30.21 in 10.0 mi NW 10.4 mph - N/A   Clear
6:55 AM 28.4 °F 20.4 °F 1.4 °F 31% 30.22 in 10.0 mi NW 8.1 mph - N/A   Clear
7:15 AM 28.4 °F 18.5 °F 1.4 °F 31% 30.24 in 10.0 mi NW 11.5 mph 17.3 mph N/A   Clear
7:35 AM 30.2 °F 20.2 °F 3.2 °F 32% 30.25 in 10.0 mi NW 12.7 mph - N/A   Clear
7:55 AM 30.2 °F 19.8 °F 1.4 °F 29% 30.25 in 10.0 mi NNW 13.8 mph 17.3 mph N/A   Clear
8:15 AM 32.0 °F 20.8 °F 1.4 °F 27% 30.26 in 10.0 mi NW 17.3 mph - N/A   Clear
8:35 AM 33.8 °F 23.9 °F 1.4 °F 25% 30.26 in 10.0 mi NW 15.0 mph 24.2 mph N/A   Clear
8:55 AM 33.8 °F 22.5 °F 1.4 °F 25% 30.27 in 10.0 mi NW 19.6 mph 24.2 mph N/A   Clear
9:15 AM 33.8 °F 21.9 °F 1.4 °F 25% 30.26 in 10.0 mi NW 21.9 mph 27.6 mph N/A   Clear
9:35 AM 35.6 °F 25.2 °F 1.4 °F 24% 30.27 in 10.0 mi NNW 18.4 mph 24.2 mph N/A   Clear
9:55 AM 35.6 °F 24.5 °F 1.4 °F 24% 30.27 in 10.0 mi NW 20.7 mph 25.3 mph N/A   Clear
10:15 AM 37.4 °F 27.8 °F 1.4 °F 22% 30.27 in 10.0 mi NW 17.3 mph 23.0 mph N/A   Clear
10:35 AM 37.4 °F 27.8 °F 3.2 °F 24% 30.28 in 10.0 mi NW 17.3 mph 23.0 mph N/A   Clear
10:55 AM 39.2 °F 30.2 °F 1.4 °F 21% 30.28 in 10.0 mi NNW 17.3 mph 25.3 mph N/A   Clear
11:15 AM 39.2 °F 30.5 °F 1.4 °F 21% 30.28 in 10.0 mi NNW 16.1 mph 25.3 mph N/A   Clear
11:35 AM 41.0 °F 33.1 °F 3.2 °F 21% 30.28 in 10.0 mi NW 15.0 mph 29.9 mph N/A   Clear
11:55 AM 42.8 °F 34.5 °F 3.2 °F 19% 30.28 in 10.0 mi NNW 18.4 mph 26.5 mph N/A   Clear
12:15 PM 44.6 °F 36.4 °F 3.2 °F 18% 30.27 in 10.0 mi NW 20.7 mph 27.6 mph N/A   Clear
12:35 PM 44.6 °F 37.4 °F 3.2 °F 18% 30.27 in 10.0 mi NW 16.1 mph 26.5 mph N/A   Clear
12:55 PM 44.6 °F 38.1 °F 3.2 °F 18% 30.26 in 10.0 mi NNW 13.8 mph 24.2 mph N/A   Clear
1:15 PM 46.4 °F 39.2 °F 3.2 °F 17% 30.24 in 10.0 mi NNW 18.4 mph 23.0 mph N/A   Clear
1:35 PM 46.4 °F 39.5 °F 3.2 °F 17% 30.24 in 10.0 mi NNW 17.3 mph 20.7 mph N/A   Clear
1:55 PM 46.4 °F 40.4 °F 3.2 °F 17% 30.24 in 10.0 mi NNW 13.8 mph 21.9 mph N/A   Clear
2:15 PM 48.2 °F - 3.2 °F 16% 30.24 in 10.0 mi NNW 15.0 mph 23.0 mph N/A   Clear
2:35 PM 48.2 °F - 3.2 °F 16% 30.23 in 10.0 mi NW 19.6 mph 24.2 mph N/A   Clear
2:55 PM 48.2 °F - 3.2 °F 16% 30.22 in 10.0 mi WNW 16.1 mph 20.7 mph N/A   Clear
3:15 PM 50.0 °F - 3.2 °F 15% 30.22 in 10.0 mi NNW 18.4 mph 23.0 mph N/A   Clear
3:35 PM 51.8 °F - 3.2 °F 14% 30.21 in 10.0 mi WNW 13.8 mph 18.4 mph N/A   Clear
3:55 PM 51.8 °F - 3.2 °F 14% 30.22 in 10.0 mi NW 9.2 mph - N/A   Clear
4:15 PM 51.8 °F - 3.2 °F 14% 30.21 in 10.0 mi NW 11.5 mph 18.4 mph N/A   Clear
4:35 PM 51.8 °F - 3.2 °F 14% 30.22 in 10.0 mi NNW 11.5 mph 19.6 mph N/A   Clear
4:55 PM 51.8 °F - 3.2 °F 14% 30.21 in 10.0 mi NNW 10.4 mph - N/A   Clear
5:15 PM 51.8 °F - 3.2 °F 14% 30.21 in 10.0 mi WNW 10.4 mph - N/A   Clear
5:35 PM 51.8 °F - 3.2 °F 14% 30.22 in 10.0 mi NW 10.4 mph - N/A   Clear
5:55 PM 51.8 °F - 1.4 °F 13% 30.22 in 10.0 mi NW 10.4 mph - N/A   Clear
6:15 PM 51.8 °F - 1.4 °F 13% 30.22 in 10.0 mi NW 11.5 mph - N/A   Clear
6:35 PM 51.8 °F - 1.4 °F 13% 30.22 in 10.0 mi WNW 6.9 mph - N/A   Clear
6:55 PM 50.0 °F - 1.4 °F 14% 30.22 in 10.0 mi NW 9.2 mph - N/A   Clear
7:15 PM 48.2 °F - 1.4 °F 15% 30.22 in 10.0 mi WNW 3.5 mph - N/A   Clear
7:35 PM 46.4 °F 45.2 °F 1.4 °F 16% 30.22 in 10.0 mi West 3.5 mph - N/A   Clear
7:55 PM 46.4 °F 45.2 °F 3.2 °F 17% 30.23 in 10.0 mi WSW 3.5 mph - N/A   Clear
8:15 PM 44.6 °F - 3.2 °F 18% 30.22 in 10.0 mi Calm Calm - N/A   Clear
8:35 PM 46.4 °F 44.3 °F 5.0 °F 18% 30.22 in 10.0 mi SW 4.6 mph - N/A   Clear
8:55 PM 44.6 °F 42.2 °F 5.0 °F 20% 30.22 in 10.0 mi SW 4.6 mph - N/A   Clear
9:15 PM 42.8 °F 39.3 °F 8.6 °F 25% 30.22 in 10.0 mi South 5.8 mph - N/A   Clear
9:35 PM 42.8 °F 38.6 °F 6.8 °F 23% 30.22 in 10.0 mi SSW 6.9 mph - N/A   Clear
9:55 PM 42.8 °F 40.1 °F 6.8 °F 23% 30.23 in 10.0 mi SSW 4.6 mph - N/A   Clear
10:15 PM 41.0 °F 36.4 °F 8.6 °F 26% 30.23 in 10.0 mi SSW 6.9 mph - N/A   Clear
10:35 PM 39.2 °F 35.0 °F 14.0 °F 36% 30.22 in 10.0 mi South 5.8 mph - N/A   Clear
10:55 PM 39.2 °F 34.2 °F 15.8 °F 39% 30.21 in 10.0 mi SSW 6.9 mph - N/A   Clear
11:15 PM 39.2 °F 35.0 °F 17.6 °F 42% 30.20 in 10.0 mi South 5.8 mph - N/A   Clear
11:35 PM 39.2 °F 34.2 °F 17.6 °F 42% 30.18 in 10.0 mi South 6.9 mph - N/A   Clear
11:55 PM 37.4 °F 32.8 °F 21.2 °F 52% 30.17 in 10.0 mi SSW 5.8 mph - N/A   Clear